Time,TemperatureF,DewpointF,PressureIn,WindDirection,WindDirectionDegrees,WindSpeedMPH,WindSpeedGustMPH,Humidity,HourlyPrecipIn,Conditions,Clouds,dailyrainin,SoftwareType,DateUTC
2013-09-01 00:00:00,77.5,53.2,29.67,ESE,104,1.0,1.0,43,0.00,,,0.00,Wunderground v.1.15,2013-09-01 06:00:00,
2013-09-01 00:05:00,77.8,52.9,29.67,ESE,104,1.0,1.0,42,0.00,,,0.00,Wunderground v.1.15,2013-09-01 06:05:00,
2013-09-01 00:15:00,78.1,53.1,29.67,ESE,109,1.0,2.0,42,0.00,,,0.00,Wunderground v.1.15,2013-09-01 06:15:00,
2013-09-01 00:20:00,78.1,53.1,29.67,South,181,1.0,1.0,42,0.00,,,0.00,Wunderground v.1.15,2013-09-01 06:20:00,
2013-09-01 00:35:00,77.8,52.9,29.66,ESE,105,1.0,1.0,42,0.00,,,0.00,Wunderground v.1.15,2013-09-01 06:35:00,
2013-09-01 00:40:00,77.5,53.2,29.66,ESE,105,0.0,1.0,43,0.00,,,0.00,Wunderground v.1.15,2013-09-01 06:40:00,
2013-09-01 00:50:00,76.5,53.6,29.66,ESE,105,0.0,0.0,45,0.00,,,0.00,Wunderground v.1.15,2013-09-01 06:50:00,
2013-09-01 00:59:00,75.5,53.9,29.66,ESE,105,0.0,0.0,47,0.00,,,0.00,Wunderground v.1.15,2013-09-01 06:59:00,
2013-09-01 01:05:00,75.0,53.4,29.66,ESE,105,0.0,0.0,47,0.00,,,0.00,Wunderground v.1.15,2013-09-01 07:05:00,
2013-09-01 01:15:00,74.4,53.4,29.66,ESE,105,0.0,0.0,48,0.00,,,0.00,Wunderground v.1.15,2013-09-01 07:15:00,
2013-09-01 01:24:00,73.7,52.8,29.66,ESE,105,0.0,0.0,48,0.00,,,0.00,Wunderground v.1.15,2013-09-01 07:24:00,
2013-09-01 01:29:00,73.3,53.5,29.66,ESE,105,0.0,0.0,50,0.00,,,0.00,Wunderground v.1.15,2013-09-01 07:29:00,
2013-09-01 01:40:00,72.4,53.2,29.66,ESE,105,0.0,0.0,51,0.00,,,0.00,Wunderground v.1.15,2013-09-01 07:40:00,
2013-09-01 01:50:00,72.1,53.5,29.66,ESE,105,0.0,0.0,52,0.00,,,0.00,Wunderground v.1.15,2013-09-01 07:50:00,
2013-09-01 02:05:00,71.3,53.3,29.65,ESE,105,0.0,0.0,53,0.00,,,0.00,Wunderground v.1.15,2013-09-01 08:05:00,
2013-09-01 02:10:00,71.1,53.1,29.65,ESE,105,0.0,0.0,53,0.00,,,0.00,Wunderground v.1.15,2013-09-01 08:10:00,
2013-09-01 02:15:00,71.3,52.8,29.65,ESE,105,0.0,0.0,52,0.00,,,0.00,Wunderground v.1.15,2013-09-01 08:15:00,
2013-09-01 02:30:00,72.1,52.4,29.65,ESE,105,0.0,1.0,50,0.00,,,0.00,Wunderground v.1.15,2013-09-01 08:30:00,
2013-09-01 02:40:00,72.5,52.8,29.65,East,100,0.0,0.0,50,0.00,,,0.00,Wunderground v.1.15,2013-09-01 08:40:00,
2013-09-01 02:45:00,72.4,52.7,29.65,East,100,0.0,0.0,50,0.00,,,0.00,Wunderground v.1.15,2013-09-01 08:45:00,
2013-09-01 02:54:00,72.1,53.0,29.65,East,84,1.0,3.0,51,0.00,,,0.00,Wunderground v.1.15,2013-09-01 08:54:00,
2013-09-01 03:05:00,71.7,52.6,29.65,East,90,1.0,1.0,51,0.00,,,0.00,Wunderground v.1.15,2013-09-01 09:05:00,
2013-09-01 03:15:00,72.2,52.5,29.65,East,91,0.0,2.0,50,0.00,,,0.00,Wunderground v.1.15,2013-09-01 09:15:00,
2013-09-01 03:24:00,73.0,53.3,29.65,SSE,168,1.0,4.0,50,0.00,,,0.00,Wunderground v.1.15,2013-09-01 09:24:00,
2013-09-01 03:29:00,73.3,53.0,29.65,SSE,156,1.0,1.0,49,0.00,,,0.00,Wunderground v.1.15,2013-09-01 09:29:00,
2013-09-01 03:35:00,73.6,53.3,29.65,South,173,1.0,2.0,49,0.00,,,0.00,Wunderground v.1.15,2013-09-01 09:35:00,
2013-09-01 03:40:00,73.7,53.3,29.65,ESE,119,1.0,1.0,49,0.00,,,0.00,Wunderground v.1.15,2013-09-01 09:40:00,
2013-09-01 03:50:00,73.4,53.1,29.65,SE,128,2.0,2.0,49,0.00,,,0.00,Wunderground v.1.15,2013-09-01 09:50:00,
2013-09-01 03:59:00,73.1,53.4,29.65,SE,128,0.0,1.0,50,0.00,,,0.00,Wunderground v.1.15,2013-09-01 09:59:00,
2013-09-01 04:14:00,72.8,53.1,29.65,ESE,116,1.0,2.0,50,0.00,,,0.00,Wunderground v.1.15,2013-09-01 10:14:00,
2013-09-01 04:19:00,72.7,53.0,29.65,ESE,109,1.0,2.0,50,0.00,,,0.00,Wunderground v.1.15,2013-09-01 10:19:00,
2013-09-01 04:24:00,72.4,52.7,29.65,ESE,109,1.0,1.0,50,0.00,,,0.00,Wunderground v.1.15,2013-09-01 10:24:00,
2013-09-01 04:29:00,72.2,52.5,29.65,ESE,109,1.0,1.0,50,0.00,,,0.00,Wunderground v.1.15,2013-09-01 10:29:00,
2013-09-01 04:39:00,72.1,52.4,29.65,East,99,1.0,1.0,50,0.00,,,0.00,Wunderground v.1.15,2013-09-01 10:39:00,
2013-09-01 04:45:00,72.1,52.4,29.66,ESE,109,1.0,1.0,50,0.00,,,0.00,Wunderground v.1.15,2013-09-01 10:45:00,
2013-09-01 04:59:00,72.3,52.6,29.66,SE,140,1.0,1.0,50,0.00,,,0.00,Wunderground v.1.15,2013-09-01 10:59:00,
2013-09-01 05:05:00,72.2,52.5,29.66,SE,140,1.0,1.0,50,0.00,,,0.00,Wunderground v.1.15,2013-09-01 11:05:00,
2013-09-01 05:15:00,72.1,53.0,29.66,SE,140,1.0,1.0,51,0.00,,,0.00,Wunderground v.1.15,2013-09-01 11:15:00,
2013-09-01 05:20:00,72.2,53.1,29.66,SSE,163,1.0,1.0,51,0.00,,,0.00,Wunderground v.1.15,2013-09-01 11:20:00,
2013-09-01 05:29:00,72.0,52.9,29.67,SSE,163,0.0,0.0,51,0.00,,,0.00,Wunderground v.1.15,2013-09-01 11:29:00,
2013-09-01 05:40:00,71.7,53.1,29.67,ESE,117,1.0,2.0,52,0.00,,,0.00,Wunderground v.1.15,2013-09-01 11:40:00,
2013-09-01 05:50:00,71.2,53.2,29.67,ESE,117,0.0,0.0,53,0.00,,,0.00,Wunderground v.1.15,2013-09-01 11:50:00,
2013-09-01 06:00:00,71.3,52.8,29.68,South,171,0.0,0.0,52,0.00,,,0.00,Wunderground v.1.15,2013-09-01 12:00:00,
2013-09-01 06:05:00,71.3,52.8,29.68,South,171,0.0,0.0,52,0.00,,,0.00,Wunderground v.1.15,2013-09-01 12:05:00,
2013-09-01 06:15:00,71.3,52.2,29.68,South,178,1.0,1.0,51,0.00,,,0.00,Wunderground v.1.15,2013-09-01 12:15:00,
2013-09-01 06:30:00,71.7,52.6,29.68,South,178,0.0,0.0,51,0.00,,,0.00,Wunderground v.1.15,2013-09-01 12:30:00,
2013-09-01 06:39:00,72.0,52.9,29.68,South,184,1.0,1.0,51,0.00,,,0.00,Wunderground v.1.15,2013-09-01 12:39:00,
2013-09-01 06:50:00,72.0,52.9,29.69,ESE,115,1.0,1.0,51,0.00,,,0.00,Wunderground v.1.15,2013-09-01 12:50:00,
2013-09-01 07:00:00,71.6,53.0,29.70,ESE,115,1.0,1.0,52,0.00,,,0.00,Wunderground v.1.15,2013-09-01 13:00:00,
2013-09-01 07:05:00,71.5,52.9,29.70,ESE,115,1.0,1.0,52,0.00,,,0.00,Wunderground v.1.15,2013-09-01 13:05:00,
2013-09-01 07:19:00,71.5,53.5,29.71,East,79,2.0,2.0,53,0.00,,,0.00,Wunderground v.1.15,2013-09-01 13:19:00,
2013-09-01 07:25:00,71.3,53.3,29.71,East,82,1.0,3.0,53,0.00,,,0.00,Wunderground v.1.15,2013-09-01 13:25:00,
2013-09-01 07:34:00,71.3,52.8,29.71,South,184,1.0,1.0,52,0.00,,,0.00,Wunderground v.1.15,2013-09-01 13:34:00,
2013-09-01 07:45:00,72.0,53.9,29.71,East,96,1.0,2.0,53,0.00,,,0.00,Wunderground v.1.15,2013-09-01 13:45:00,
2013-09-01 07:55:00,72.8,53.6,29.72,SE,130,2.0,2.0,51,0.00,,,0.00,Wunderground v.1.15,2013-09-01 13:55:00,
2013-09-01 08:05:00,73.5,54.3,29.72,ESE,105,2.0,4.0,51,0.00,,,0.00,Wunderground v.1.15,2013-09-01 14:05:00,
2013-09-01 08:15:00,74.1,53.7,29.72,East,96,2.0,4.0,49,0.00,,,0.00,Wunderground v.1.15,2013-09-01 14:15:00,
2013-09-01 08:25:00,73.3,54.6,29.73,East,101,2.0,4.0,52,0.00,,,0.00,Wunderground v.1.15,2013-09-01 14:25:00,
2013-09-01 08:40:00,75.0,55.1,29.73,ESE,108,5.0,8.0,50,0.00,,,0.00,Wunderground v.1.15,2013-09-01 14:40:00,
2013-09-01 08:50:00,75.6,55.1,29.73,East,88,3.0,7.0,49,0.00,,,0.00,Wunderground v.1.15,2013-09-01 14:50:00,
2013-09-01 09:05:00,75.5,54.4,29.73,East,92,3.0,4.0,48,0.00,,,0.00,Wunderground v.1.15,2013-09-01 15:05:00,
2013-09-01 09:10:00,75.7,55.7,29.73,East,99,4.0,4.0,50,0.00,,,0.00,Wunderground v.1.15,2013-09-01 15:10:00,
2013-09-01 09:19:00,76.4,54.7,29.73,East,92,4.0,6.0,47,0.00,,,0.00,Wunderground v.1.15,2013-09-01 15:19:00,
2013-09-01 09:25:00,76.7,55.0,29.73,East,98,5.0,5.0,47,0.00,,,0.00,Wunderground v.1.15,2013-09-01 15:25:00,
2013-09-01 09:34:00,77.3,55.5,29.73,East,88,5.0,9.0,47,0.00,,,0.00,Wunderground v.1.15,2013-09-01 15:34:00,
2013-09-01 09:40:00,77.6,55.8,29.73,ESE,107,6.0,9.0,47,0.00,,,0.00,Wunderground v.1.15,2013-09-01 15:40:00,
2013-09-01 09:50:00,78.3,55.2,29.73,ESE,111,6.0,11.0,45,0.00,,,0.00,Wunderground v.1.15,2013-09-01 15:50:00,
2013-09-01 09:59:00,78.7,55.6,29.72,ESE,112,5.0,6.0,45,0.00,,,0.00,Wunderground v.1.15,2013-09-01 15:59:00,
2013-09-01 10:05:00,78.7,55.6,29.72,East,101,5.0,6.0,45,0.00,,,0.00,Wunderground v.1.15,2013-09-01 16:05:00,
2013-09-01 10:14:00,78.7,56.2,29.72,ESE,105,3.0,4.0,46,0.00,,,0.00,Wunderground v.1.15,2013-09-01 16:14:00,
2013-09-01 10:20:00,78.7,56.2,29.72,ESE,103,3.0,3.0,46,0.00,,,0.00,Wunderground v.1.15,2013-09-01 16:20:00,
2013-09-01 10:25:00,79.2,56.0,29.72,ESE,112,4.0,6.0,45,0.00,,,0.00,Wunderground v.1.15,2013-09-01 16:25:00,
2013-09-01 10:30:00,79.8,55.9,29.72,East,98,5.0,7.0,44,0.00,,,0.00,Wunderground v.1.15,2013-09-01 16:30:00,
2013-09-01 10:35:00,79.4,55.6,29.72,East,99,5.0,7.0,44,0.00,,,0.00,Wunderground v.1.15,2013-09-01 16:35:00,
2013-09-01 10:45:00,79.0,55.8,29.73,ESE,102,4.0,5.0,45,0.00,,,0.00,Wunderground v.1.15,2013-09-01 16:45:00,
2013-09-01 10:55:00,81.2,56.6,29.72,ESE,103,4.0,6.0,43,0.00,,,0.00,Wunderground v.1.15,2013-09-01 16:55:00,
2013-09-01 11:04:00,81.8,56.5,29.72,ESE,109,4.0,9.0,42,0.00,,,0.00,Wunderground v.1.15,2013-09-01 17:04:00,
2013-09-01 11:10:00,81.0,55.7,29.72,East,83,4.0,4.0,42,0.00,,,0.00,Wunderground v.1.15,2013-09-01 17:10:00,
2013-09-01 11:15:00,80.9,56.3,29.72,ESE,104,4.0,4.0,43,0.00,,,0.00,Wunderground v.1.15,2013-09-01 17:15:00,
2013-09-01 11:25:00,82.7,57.3,29.71,ESE,103,3.0,5.0,42,0.00,,,0.00,Wunderground v.1.15,2013-09-01 17:25:00,
2013-09-01 11:35:00,84.3,55.9,29.71,East,94,3.0,3.0,38,0.00,,,0.00,Wunderground v.1.15,2013-09-01 17:35:00,
2013-09-01 11:44:00,83.6,56.0,29.71,ESE,102,2.0,2.0,39,0.00,,,0.00,Wunderground v.1.15,2013-09-01 17:44:00,
2013-09-01 11:50:00,83.3,57.1,29.71,ESE,102,1.0,2.0,41,0.00,,,0.00,Wunderground v.1.15,2013-09-01 17:50:00,
2013-09-01 12:00:00,82.7,55.9,29.71,East,86,1.0,1.0,40,0.00,,,0.00,Wunderground v.1.15,2013-09-01 18:00:00,
2013-09-01 12:05:00,82.2,56.2,29.70,East,92,1.0,1.0,41,0.00,,,0.00,Wunderground v.1.15,2013-09-01 18:05:00,
2013-09-01 12:15:00,82.8,56.0,29.70,East,88,0.0,0.0,40,0.00,,,0.00,Wunderground v.1.15,2013-09-01 18:15:00,
2013-09-01 12:20:00,83.0,55.5,29.70,NW,321,1.0,3.0,39,0.00,,,0.00,Wunderground v.1.15,2013-09-01 18:20:00,
2013-09-01 12:30:00,83.9,55.6,29.69,NW,321,0.0,0.0,38,0.00,,,0.00,Wunderground v.1.15,2013-09-01 18:30:00,
2013-09-01 12:45:00,86.3,56.2,29.69,NNW,345,2.0,2.0,36,0.00,,,0.00,Wunderground v.1.15,2013-09-01 18:45:00,
2013-09-01 12:55:00,87.3,56.3,29.68,North,5,1.0,2.0,35,0.00,,,0.00,Wunderground v.1.15,2013-09-01 18:55:00,
2013-09-01 13:00:00,87.7,57.4,29.68,NNE,18,3.0,4.0,36,0.00,,,0.00,Wunderground v.1.15,2013-09-01 19:00:00,
2013-09-01 13:05:00,88.0,56.1,29.68,NNE,17,4.0,4.0,34,0.00,,,0.00,Wunderground v.1.15,2013-09-01 19:05:00,
2013-09-01 13:15:00,87.5,56.5,29.68,NW,316,2.0,4.0,35,0.00,,,0.00,Wunderground v.1.15,2013-09-01 19:15:00,
2013-09-01 13:25:00,88.0,57.7,29.67,NW,326,2.0,4.0,36,0.00,,,0.00,Wunderground v.1.15,2013-09-01 19:25:00,
2013-09-01 13:30:00,88.6,56.6,29.67,NNW,337,2.0,3.0,34,0.00,,,0.00,Wunderground v.1.15,2013-09-01 19:30:00,
2013-09-01 13:40:00,88.9,55.2,29.67,WNW,298,3.0,5.0,32,0.00,,,0.00,Wunderground v.1.15,2013-09-01 19:40:00,
2013-09-01 13:50:00,87.0,55.2,29.66,NNW,346,4.0,5.0,34,0.00,,,0.00,Wunderground v.1.15,2013-09-01 19:50:00,
2013-09-01 14:00:00,86.2,55.3,29.66,North,355,3.0,4.0,35,0.00,,,0.00,Wunderground v.1.15,2013-09-01 20:00:00,
2013-09-01 14:05:00,85.9,55.1,29.66,North,355,3.0,4.0,35,0.00,,,0.00,Wunderground v.1.15,2013-09-01 20:05:00,
2013-09-01 14:20:00,87.3,57.1,29.65,North,360,3.0,3.0,36,0.00,,,0.00,Wunderground v.1.15,2013-09-01 20:20:00,
2013-09-01 14:30:00,88.7,57.5,29.65,North,5,3.0,3.0,35,0.00,,,0.00,Wunderground v.1.15,2013-09-01 20:30:00,
2013-09-01 14:35:00,88.2,56.3,29.64,NNE,15,2.0,3.0,34,0.00,,,0.00,Wunderground v.1.15,2013-09-01 20:35:00,
2013-09-01 14:40:00,88.0,56.9,29.64,NNE,17,3.0,3.0,35,0.00,,,0.00,Wunderground v.1.15,2013-09-01 20:40:00,
2013-09-01 14:50:00,88.1,57.8,29.64,North,360,3.0,3.0,36,0.00,,,0.00,Wunderground v.1.15,2013-09-01 20:50:00,
2013-09-01 15:00:00,89.2,57.2,29.63,NNE,15,4.0,4.0,34,0.00,,,0.00,Wunderground v.1.15,2013-09-01 21:00:00,
2013-09-01 15:10:00,89.9,56.9,29.62,NNW,337,3.0,3.0,33,0.00,,,0.00,Wunderground v.1.15,2013-09-01 21:10:00,
2013-09-01 15:20:00,90.3,58.1,29.62,NNE,15,3.0,3.0,34,0.00,,,0.00,Wunderground v.1.15,2013-09-01 21:20:00,
2013-09-01 15:30:00,90.9,57.0,29.61,NNW,344,3.0,3.0,32,0.00,,,0.00,Wunderground v.1.15,2013-09-01 21:30:00,
2013-09-01 15:35:00,91.1,58.0,29.61,North,355,2.0,3.0,33,0.00,,,0.00,Wunderground v.1.15,2013-09-01 21:35:00,
2013-09-01 15:45:00,91.5,57.5,29.61,WNW,291,2.0,4.0,32,0.00,,,0.00,Wunderground v.1.15,2013-09-01 21:45:00,
2013-09-01 15:55:00,91.4,57.4,29.61,NNW,348,4.0,4.0,32,0.00,,,0.00,Wunderground v.1.15,2013-09-01 21:55:00,
2013-09-01 16:00:00,91.3,58.2,29.61,NW,312,3.0,5.0,33,0.00,,,0.00,Wunderground v.1.15,2013-09-01 22:00:00,
2013-09-01 16:05:00,91.3,56.4,29.60,North,350,3.0,5.0,31,0.00,,,0.00,Wunderground v.1.15,2013-09-01 22:05:00,
2013-09-01 16:15:00,91.3,57.3,29.60,North,5,2.0,5.0,32,0.00,,,0.00,Wunderground v.1.15,2013-09-01 22:15:00,
2013-09-01 16:25:00,91.5,57.5,29.60,NW,318,4.0,7.0,32,0.00,,,0.00,Wunderground v.1.15,2013-09-01 22:25:00,
2013-09-01 16:30:00,91.5,57.5,29.60,North,355,4.0,4.0,32,0.00,,,0.00,Wunderground v.1.15,2013-09-01 22:30:00,
2013-09-01 16:35:00,91.5,57.5,29.59,NNW,330,4.0,4.0,32,0.00,,,0.00,Wunderground v.1.15,2013-09-01 22:35:00,
2013-09-01 16:40:00,91.7,58.5,29.59,NNW,338,3.0,3.0,33,0.00,,,0.00,Wunderground v.1.15,2013-09-01 22:40:00,
2013-09-01 16:45:00,92.1,58.0,29.59,NE,34,3.0,3.0,32,0.00,,,0.00,Wunderground v.1.15,2013-09-01 22:45:00,
2013-09-01 16:50:00,92.1,58.0,29.59,NNE,17,3.0,4.0,32,0.00,,,0.00,Wunderground v.1.15,2013-09-01 22:50:00,
2013-09-01 17:00:00,92.2,57.2,29.58,NW,312,3.0,3.0,31,0.00,,,0.00,Wunderground v.1.15,2013-09-01 23:00:00,
2013-09-01 17:05:00,92.2,57.2,29.58,North,360,3.0,3.0,31,0.00,,,0.00,Wunderground v.1.15,2013-09-01 23:05:00,
2013-09-01 17:15:00,91.9,57.8,29.58,NNW,338,2.0,5.0,32,0.00,,,0.00,Wunderground v.1.15,2013-09-01 23:15:00,
2013-09-01 17:20:00,91.9,57.8,29.58,NNE,13,2.0,4.0,32,0.00,,,0.00,Wunderground v.1.15,2013-09-01 23:20:00,
2013-09-01 17:35:00,91.2,56.3,29.58,NNW,329,3.0,4.0,31,0.00,,,0.00,Wunderground v.1.15,2013-09-01 23:35:00,
2013-09-01 17:40:00,91.0,57.0,29.58,NNW,329,2.0,4.0,32,0.00,,,0.00,Wunderground v.1.15,2013-09-01 23:40:00,
2013-09-01 17:50:00,89.9,56.1,29.58,NNW,341,2.0,4.0,32,0.00,,,0.00,Wunderground v.1.15,2013-09-01 23:50:00,
2013-09-01 17:55:00,89.9,56.1,29.58,NNW,347,2.0,2.0,32,0.00,,,0.00,Wunderground v.1.15,2013-09-01 23:55:00,
2013-09-01 18:05:00,88.7,55.9,29.58,NNW,347,1.0,1.0,33,0.00,,,0.00,Wunderground v.1.15,2013-09-02 00:05:00,
2013-09-01 18:25:00,86.6,56.5,29.58,NNW,347,0.0,0.0,36,0.00,,,0.00,Wunderground v.1.15,2013-09-02 00:25:00,
2013-09-01 18:30:00,86.2,56.9,29.58,NNW,347,0.0,0.0,37,0.00,,,0.00,Wunderground v.1.15,2013-09-02 00:30:00,
2013-09-01 18:40:00,86.1,56.8,29.58,NNW,347,0.0,0.0,37,0.00,,,0.00,Wunderground v.1.15,2013-09-02 00:40:00,
2013-09-01 18:45:00,86.1,56.0,29.58,WSW,238,1.0,3.0,36,0.00,,,0.00,Wunderground v.1.15,2013-09-02 00:45:00,
2013-09-01 18:55:00,86.3,56.2,29.58,SW,228,3.0,4.0,36,0.00,,,0.00,Wunderground v.1.15,2013-09-02 00:55:00,
2013-09-01 19:05:00,86.5,55.6,29.58,SW,227,2.0,3.0,35,0.00,,,0.00,Wunderground v.1.15,2013-09-02 01:05:00,
2013-09-01 19:15:00,86.8,55.9,29.58,SW,225,2.0,3.0,35,0.00,,,0.00,Wunderground v.1.15,2013-09-02 01:15:00,
2013-09-01 19:20:00,86.8,56.6,29.59,SW,225,1.0,1.0,36,0.00,,,0.00,Wunderground v.1.15,2013-09-02 01:20:00,
2013-09-01 19:30:00,86.4,56.3,29.59,SSW,200,1.0,1.0,36,0.00,,,0.00,Wunderground v.1.15,2013-09-02 01:30:00,
2013-09-01 19:40:00,85.8,56.5,29.60,South,173,1.0,1.0,37,0.00,,,0.00,Wunderground v.1.15,2013-09-02 01:40:00,
2013-09-01 19:50:00,84.3,57.3,29.60,East,92,2.0,4.0,40,0.00,,,0.00,Wunderground v.1.15,2013-09-02 01:50:00,
2013-09-01 19:55:00,83.2,57.1,29.60,East,96,1.0,4.0,41,0.00,,,0.00,Wunderground v.1.15,2013-09-02 01:55:00,
2013-09-01 20:05:00,82.4,56.3,29.61,East,96,0.0,0.0,41,0.00,,,0.00,Wunderground v.1.15,2013-09-02 02:05:00,
2013-09-01 20:10:00,82.5,56.4,29.61,SSW,210,1.0,2.0,41,0.00,,,0.00,Wunderground v.1.15,2013-09-02 02:10:00,
2013-09-01 20:20:00,83.0,56.2,29.61,SSW,198,2.0,2.0,40,0.00,,,0.00,Wunderground v.1.15,2013-09-02 02:20:00,
2013-09-01 20:30:00,82.8,56.7,29.62,SW,222,2.0,2.0,41,0.00,,,0.00,Wunderground v.1.15,2013-09-02 02:30:00,
2013-09-01 20:35:00,82.6,56.5,29.62,SW,215,2.0,2.0,41,0.00,,,0.00,Wunderground v.1.15,2013-09-02 02:35:00,
2013-09-01 20:45:00,82.4,56.3,29.63,SW,221,1.0,2.0,41,0.00,,,0.00,Wunderground v.1.15,2013-09-02 02:45:00,
2013-09-01 20:55:00,82.3,56.2,29.63,South,173,2.0,2.0,41,0.00,,,0.00,Wunderground v.1.15,2013-09-02 02:55:00,
2013-09-01 21:00:00,82.2,56.8,29.63,South,187,1.0,1.0,42,0.00,,,0.00,Wunderground v.1.15,2013-09-02 03:00:00,
2013-09-01 21:05:00,81.9,57.2,29.64,NNW,340,1.0,1.0,43,0.00,,,0.00,Wunderground v.1.15,2013-09-02 03:05:00,
2013-09-01 21:15:00,79.5,58.7,29.65,North,351,1.0,1.0,49,0.00,,,0.00,Wunderground v.1.15,2013-09-02 03:15:00,
2013-09-01 21:20:00,78.5,58.3,29.65,North,351,0.0,0.0,50,0.00,,,0.00,Wunderground v.1.15,2013-09-02 03:20:00,
2013-09-01 21:30:00,77.1,57.6,29.65,North,351,0.0,0.0,51,0.00,,,0.00,Wunderground v.1.15,2013-09-02 03:30:00,
2013-09-01 21:35:00,76.9,57.4,29.65,North,351,0.0,0.0,51,0.00,,,0.00,Wunderground v.1.15,2013-09-02 03:35:00,
2013-09-01 21:50:00,76.6,57.1,29.66,North,351,0.0,0.0,51,0.00,,,0.00,Wunderground v.1.15,2013-09-02 03:50:00,
2013-09-01 22:00:00,76.3,57.4,29.66,North,351,0.0,0.0,52,0.00,,,0.00,Wunderground v.1.15,2013-09-02 04:00:00,
2013-09-01 22:05:00,76.1,56.7,29.66,North,351,0.0,0.0,51,0.00,,,0.00,Wunderground v.1.15,2013-09-02 04:05:00,
2013-09-01 22:10:00,76.1,57.2,29.66,North,351,0.0,0.0,52,0.00,,,0.00,Wunderground v.1.15,2013-09-02 04:10:00,
2013-09-01 22:15:00,76.1,56.7,29.66,North,351,0.0,0.0,51,0.00,,,0.00,Wunderground v.1.15,2013-09-02 04:15:00,
2013-09-01 22:20:00,76.2,56.7,29.67,North,351,0.0,0.0,51,0.00,,,0.00,Wunderground v.1.15,2013-09-02 04:20:00,
2013-09-01 22:30:00,76.4,56.9,29.67,North,351,0.0,0.0,51,0.00,,,0.00,Wunderground v.1.15,2013-09-02 04:30:00,
2013-09-01 22:40:00,75.8,56.9,29.67,North,351,0.0,0.0,52,0.00,,,0.00,Wunderground v.1.15,2013-09-02 04:40:00,
2013-09-01 22:45:00,75.5,57.2,29.67,North,351,0.0,0.0,53,0.00,,,0.00,Wunderground v.1.15,2013-09-02 04:45:00,
2013-09-01 22:55:00,75.1,57.3,29.68,North,351,1.0,1.0,54,0.00,,,0.00,Wunderground v.1.15,2013-09-02 04:55:00,
2013-09-01 23:00:00,74.9,57.6,29.68,North,355,1.0,1.0,55,0.00,,,0.00,Wunderground v.1.15,2013-09-02 05:00:00,
2013-09-01 23:10:00,74.7,58.0,29.68,NNE,27,1.0,1.0,56,0.00,,,0.00,Wunderground v.1.15,2013-09-02 05:10:00,
2013-09-01 23:20:00,74.4,57.2,29.68,NNE,27,0.0,0.0,55,0.00,,,0.00,Wunderground v.1.15,2013-09-02 05:20:00,
2013-09-01 23:25:00,74.2,57.5,29.68,NNE,27,0.0,1.0,56,0.00,,,0.00,Wunderground v.1.15,2013-09-02 05:25:00,
2013-09-01 23:30:00,74.5,57.3,29.68,NNE,27,0.0,0.0,55,0.00,,,0.00,Wunderground v.1.15,2013-09-02 05:30:00,
2013-09-01 23:40:00,75.2,56.4,29.68,NNE,27,0.0,0.0,52,0.00,,,0.00,Wunderground v.1.15,2013-09-02 05:40:00,
2013-09-01 23:45:00,75.1,56.8,29.69,NNE,27,0.0,0.0,53,0.00,,,0.00,Wunderground v.1.15,2013-09-02 05:45:00,
2013-09-01 23:55:00,74.2,57.0,29.69,NNE,27,0.0,0.0,55,0.00,,,0.00,Wunderground v.1.15,2013-09-02 05:55:00,